Weather History for KSPF - February, 2014

Change the Weather History Date:

Friday, February 28, 2014

  Actual Average (KEFC) Record (KEFC)
Temperature  
Mean Temperature 14 °F -  
Max Temperature 28 °F 44 °F 69 °F (1967)
Min Temperature 0 °F 19 °F -22 °F (1960)
Degree Days  
Heating Degree Days 51    
Moisture  
Dew Point 7 °F    
Average Humidity 82    
Maximum Humidity 93    
Minimum Humidity 67    
Precipitation  
Precipitation 4.01 in - - ()
Sea Level Pressure  
Sea Level Pressure 29.87 in    
Wind  
Wind Speed 13 mph (NW)    
Max Wind Speed 23 mph    
Max Gust Speed 31 mph    
Visibility 5 miles    
Events Snow    
Averages and records for this station are not official NWS values.
T = Trace of Precipitation, MM = Missing Value Source: NWS Daily Summary

Daily Weather History Graph

Daily Weather History Graph

Search for Another Location

Airport or City:

Trip Planner

Search our weather history database for the weather conditions in past years. The results will help you decide how hot, cold, wet, or windy it might be!

Date:

Astronomy

Feb. 28, 2014 Rise Set
Actual Time 7:34 AM CST 6:41 PM CST
Civil Twilight 7:04 AM CST 7:11 PM CST
Nautical Twilight 6:31 AM CST 7:44 PM CST
Astronomical Twilight 5:57 AM CST 8:18 PM CST
Moon 6:50 AM CST (2/28) 6:22 PM CST (2/28)
Length of Visible Light 12h 06m
Length of Day
11h 07m
Waning Crescent, 1% of the Moon is Illuminated
Feb 28
Waning Crescent
Mar 1
New
Mar 8
First Quarter
Mar 16
Full
Mar 23
Last Quarter

Hourly Weather History & Observations

Time (CST) Temp. Windchill Dew Point Humidity Pressure Visibility Wind Dir Wind Speed Gust Speed Precip Events Conditions
12:15 AM 26.6 °F 22.6 °F 19.4 °F 74% 29.46 in 10.0 mi North 3.5 mph - N/A   Overcast
12:55 AM 23.0 °F 14.7 °F 17.6 °F 80% 29.47 in 10.0 mi West 6.9 mph - N/A   Mostly Cloudy
1:35 AM 26.6 °F 19.1 °F 21.2 °F 80% 29.49 in 10.0 mi WNW 6.9 mph - N/A   Overcast
1:55 AM 26.6 °F 17.5 °F 21.2 °F 80% 29.51 in 10.0 mi West 9.2 mph - N/A   Overcast
2:15 AM 28.4 °F 18.0 °F 23.0 °F 80% 29.53 in 10.0 mi NW 12.7 mph 18.4 mph N/A   Overcast
2:35 AM 26.6 °F 16.2 °F 23.0 °F 86% 29.55 in 4.0 mi WNW 11.5 mph 18.4 mph 0.02 in Snow Light Snow
2:55 AM 26.6 °F 14.7 °F 23.0 °F 86% 29.58 in 2.0 mi WNW 15.0 mph 25.3 mph 0.11 in Snow Light Snow
3:15 AM 24.8 °F 11.5 °F 23.0 °F 93% 29.59 in 2.0 mi WNW 17.3 mph 24.2 mph 0.05 in Snow Light Snow
3:35 AM 24.8 °F 11.1 °F 23.0 °F 93% 29.61 in 5.0 mi WNW 18.4 mph 28.8 mph 0.08 in   Overcast
3:55 AM 24.8 °F 11.9 °F 23.0 °F 93% 29.62 in 3.0 mi NW 16.1 mph 26.5 mph 0.10 in   Overcast
4:15 AM 24.8 °F 11.5 °F 21.2 °F 86% 29.64 in 3.0 mi WNW 17.3 mph 26.5 mph 0.02 in   Overcast
4:35 AM 23.0 °F 9.6 °F 21.2 °F 93% 29.66 in 4.0 mi WNW 16.1 mph 25.3 mph 0.05 in   Overcast
4:55 AM 23.0 °F 8.3 °F 19.4 °F 86% 29.67 in 2.5 mi WNW 19.6 mph 27.6 mph 0.14 in Snow Light Snow
5:15 AM 23.0 °F 10.1 °F 19.4 °F 86% 29.69 in 1.8 mi WNW 15.0 mph 20.7 mph 0.13 in Snow Light Snow
5:35 AM 23.0 °F 9.2 °F 19.4 °F 86% 29.70 in 5.0 mi WNW 17.3 mph 24.2 mph 0.16 in   Overcast
5:55 AM 21.2 °F - 19.4 °F 93% 29.72 in 6.0 mi North - - 0.17 in Snow Light Snow
6:15 AM 21.2 °F 5.6 °F 15.8 °F 80% 29.73 in 7.0 mi WNW 20.7 mph 29.9 mph N/A Snow Light Snow
6:35 AM 19.4 °F 4.1 °F 15.8 °F 86% 29.75 in 4.0 mi WNW 18.4 mph 26.5 mph 0.07 in Snow Light Snow
6:55 AM 19.4 °F 4.5 °F 15.8 °F 86% 29.76 in 6.0 mi WNW 17.3 mph 24.2 mph 0.10 in Snow Light Snow
7:15 AM 19.4 °F 3.2 °F 15.8 °F 86% 29.78 in 1.8 mi NW 20.7 mph 31.1 mph 0.17 in Snow Light Snow
7:35 AM 15.8 °F -2.3 °F 12.2 °F 86% 29.80 in 3.0 mi NW 23.0 mph - 0.24 in Snow Light Snow
7:55 AM 14.0 °F -4.3 °F 10.4 °F 86% 29.82 in 1.5 mi NW 21.9 mph 31.1 mph 0.36 in Snow Light Snow
8:15 AM 14.0 °F -2.5 °F 8.6 °F 79% 29.83 in 0.8 mi WNW 17.3 mph 24.2 mph 0.24 in Snow Light Snow
8:35 AM 12.2 °F -2.5 °F 8.6 °F 85% 29.84 in 0.5 mi WNW 12.7 mph 17.3 mph 0.76 in Snow Snow
8:55 AM 14.0 °F -2.0 °F 8.6 °F 79% 29.84 in 1.5 mi WNW 16.1 mph - 1.08 in Snow Light Snow
9:15 AM 12.2 °F -6.7 °F 8.6 °F 85% 29.86 in 1.2 mi WNW 21.9 mph - 0.17 in Snow Light Snow
9:35 AM 10.4 °F -8.6 °F 5.0 °F 79% 29.88 in 6.0 mi NW 20.7 mph 27.6 mph 0.23 in Snow Light Snow
9:55 AM 10.4 °F -8.2 °F 5.0 °F 79% 29.89 in 4.0 mi NW 19.6 mph 24.2 mph 0.26 in Snow Light Snow
10:15 AM 8.6 °F -10.0 °F 3.2 °F 79% 29.90 in 7.0 mi WNW 18.4 mph 25.3 mph 0.01 in Snow Light Snow
10:35 AM 8.6 °F -7.7 °F 3.2 °F 79% 29.90 in 0.8 mi NW 13.8 mph 23.0 mph 0.20 in Snow Light Snow
10:55 AM 8.6 °F -9.5 °F 5.0 °F 85% 29.91 in 2.5 mi WNW 17.3 mph 23.0 mph 0.46 in Snow Light Snow
11:15 AM 8.6 °F -10.5 °F 3.2 °F 79% 29.92 in 2.5 mi NW 19.6 mph 27.6 mph 0.03 in Snow Light Snow
11:35 AM 8.6 °F -6.3 °F 3.2 °F 79% 29.93 in 5.0 mi NW 11.5 mph 17.3 mph 0.06 in Snow Light Snow
11:55 AM 8.6 °F -7.7 °F 1.4 °F 73% 29.93 in 7.0 mi NW 13.8 mph - 0.08 in Snow Light Snow
12:15 PM 8.6 °F -8.3 °F 1.4 °F 73% 29.94 in 8.0 mi NW 15.0 mph 19.6 mph N/A Snow Light Snow
12:35 PM 6.8 °F -9.3 °F 1.4 °F 79% 29.94 in 10.0 mi NW 12.7 mph - 0.01 in Snow Light Snow
12:55 PM 6.8 °F -10.7 °F 1.4 °F 79% 29.94 in 9.0 mi NW 15.0 mph - 0.01 in Snow Light Snow
1:15 PM 6.8 °F -10.0 °F 1.4 °F 79% 29.94 in 9.0 mi NW 13.8 mph - N/A Snow Light Snow
1:35 PM 8.6 °F -5.5 °F 3.2 °F 79% 29.94 in 3.0 mi NW 10.4 mph - 0.01 in Snow Light Snow
1:55 PM 8.6 °F -8.3 °F 3.2 °F 79% 29.93 in 2.5 mi NW 15.0 mph - 0.04 in Snow Light Snow
2:15 PM 8.6 °F -8.3 °F -0.4 °F 67% 29.94 in 9.0 mi NW 15.0 mph 21.9 mph N/A Snow Light Snow
2:35 PM 6.8 °F -11.3 °F -0.4 °F 72% 29.94 in 10.0 mi NW 16.1 mph - 0.01 in Snow Light Snow
2:55 PM 6.8 °F -12.4 °F -0.4 °F 72% 29.94 in 3.0 mi NW 18.4 mph - 0.04 in Snow Light Snow
3:15 PM 6.8 °F -11.8 °F -0.4 °F 72% 29.95 in 2.5 mi NW 17.3 mph - 0.03 in Snow Light Snow
3:35 PM 6.8 °F -10.7 °F -0.4 °F 72% 29.95 in 1.2 mi NW 15.0 mph - 0.13 in Snow Light Snow
3:55 PM 6.8 °F -9.3 °F -0.4 °F 72% 29.95 in 1.2 mi NNW 12.7 mph 21.9 mph 0.32 in Snow Light Snow
4:15 PM 5.0 °F -12.3 °F -0.4 °F 78% 29.95 in 1.0 mi NW 13.8 mph 20.7 mph 0.05 in Snow Light Snow
4:35 PM 5.0 °F -11.6 °F -0.4 °F 78% 29.96 in 1.0 mi NW 12.7 mph - 0.19 in Snow Light Snow
4:55 PM 5.0 °F -10.8 °F 1.4 °F 85% 29.96 in 1.0 mi NW 11.5 mph - 0.33 in Snow Light Snow
5:15 PM 5.0 °F -10.8 °F -0.4 °F 78% 29.97 in 5.0 mi NW 11.5 mph - 0.01 in Snow Light Snow
5:35 PM 5.0 °F -11.6 °F -0.4 °F 78% 29.98 in 5.0 mi NW 12.7 mph 17.3 mph 0.03 in Snow Light Snow
5:55 PM 5.0 °F -10.8 °F -2.2 °F 72% 29.98 in 7.0 mi NW 11.5 mph - 0.04 in Snow Light Snow
6:15 PM 5.0 °F -10.0 °F -0.4 °F 78% 29.99 in 4.0 mi WNW 10.4 mph - 0.02 in Snow Light Snow
6:35 PM 5.0 °F -10.0 °F -0.4 °F 78% 30.00 in 4.0 mi NW 10.4 mph - 0.06 in Snow Light Snow
6:55 PM 3.2 °F -11.3 °F -0.4 °F 85% 30.01 in 4.0 mi NNW 9.2 mph - 0.08 in Snow Light Snow
7:15 PM 3.2 °F -10.3 °F -0.4 °F 85% 30.01 in 5.0 mi NW 8.1 mph - 0.02 in Snow Light Snow
7:35 PM 1.4 °F -12.5 °F -0.4 °F 92% 30.01 in 5.0 mi WNW 8.1 mph - 0.04 in Snow Light Snow
7:55 PM 1.4 °F -13.5 °F -2.2 °F 85% 30.02 in 4.0 mi NW 9.2 mph - 0.07 in Snow Light Snow
8:15 PM 1.4 °F -12.5 °F -0.4 °F 92% 30.03 in 5.0 mi WNW 8.1 mph - 0.03 in Snow Light Snow
8:35 PM 1.4 °F -11.3 °F -2.2 °F 85% 30.04 in 5.0 mi NW 6.9 mph - 0.06 in Snow Light Snow
8:55 PM 1.4 °F -12.5 °F -2.2 °F 85% 30.04 in 7.0 mi NNW 8.1 mph - 0.08 in Snow Light Snow
9:15 PM 1.4 °F -9.9 °F -2.2 °F 85% 30.05 in 9.0 mi NW 5.8 mph - N/A Snow Light Snow
9:35 PM 1.4 °F -9.9 °F -2.2 °F 85% 30.06 in 5.0 mi NNW 5.8 mph - 0.01 in Snow Light Snow
9:55 PM 1.4 °F -8.3 °F -2.2 °F 85% 30.07 in 5.0 mi NNW 4.6 mph - 0.03 in Snow Light Snow
10:15 PM 1.4 °F -9.9 °F -2.2 °F 85% 30.07 in 3.0 mi NNW 5.8 mph - 0.02 in Snow Light Snow
10:35 PM -0.4 °F -13.4 °F -2.2 °F 92% 30.08 in 3.0 mi NE 6.9 mph - 0.05 in Snow Light Snow
10:55 PM -0.4 °F -13.4 °F -4.0 °F 85% 30.08 in 3.0 mi NE 6.9 mph - 0.06 in Snow Light Snow
11:15 PM -0.4 °F -15.7 °F -4.0 °F 85% 30.08 in 4.0 mi NE 9.2 mph - N/A Snow Light Snow
11:35 PM -0.4 °F -14.7 °F -4.0 °F 85% 30.08 in 3.0 mi ENE 8.1 mph - 0.01 in Snow Light Snow
11:55 PM -0.4 °F - -5.8 °F 78% 30.07 in 1.8 mi North - - 0.05 in Snow Light Snow